{"data":{"norad_id":47753,"intl_designator":"2021-017AH","name":"STARLINK-2170","alt_names":[],"object_type":"PAYLOAD","status":"ACTIVE","operator":null,"country":"US","launch_date":"2021-03-04","launch_site_code":"AFETR","launch_vehicle":null,"mission":null,"orbit_class":"UNKNOWN","rcs_meters":null,"size_class":null,"mass_kg":null,"dimensions":null,"purposes":["comms"],"wikipedia_slug":null,"has_3d_model":false,"image_url":null,"decayed_at":null,"tle_current":{"epoch":"2026-09-19T19:46:41.401056Z","epoch_age_seconds":84184,"freshness":"FRESH","line1":"1 47753U 21017AH  26262.82409029  .00032092  00000+0  95726-3 0  9996","line2":"2 47753  53.1583  20.0650 0002403 340.2089  19.8820 15.34386070307646","mean_motion":15.3438607,"eccentricity":0.0002403,"inclination_deg":53.1583,"raan_deg":20.065,"arg_perigee_deg":340.2089,"mean_anomaly_deg":19.882,"bstar":0.00095726,"rev_number":30764,"period_min":93.848610082859,"perigee_km":461.10077955704,"apogee_km":464.38850727486,"semimajor_km":6840.8816434159,"source":"CELESTRAK","updated_at":"2026-09-20T09:00:38.602086Z"}}}